Rexburg, ID

2:18 AM MDT on May 21, 2018 (GMT -0600)
Rexburg-Madison County

Weather History for KRXE - September, 2012

Change the Weather History Date:

Monday, September 17, 2012

  Actual Average Record
Temperature  
Mean Temperature 57 °F 55 °F  
Max Temperature 74 °F 71 °F 86 °F (1998)
Min Temperature 40 °F 39 °F 30 °F (2006)
Degree Days  
Heating Degree Days 8 10  
Month to date heating degree days 85 121  
Since 1 July heating degree days 92 194  
Cooling Degree Days 0 0  
Month to date cooling degree days 0 5  
Year to date cooling degree days 419 207  
Growing Degree Days 6 (Base 50)    
Moisture  
Dew Point 35 °F    
Average Humidity 53    
Maximum Humidity 85    
Minimum Humidity 20    
Precipitation  
Precipitation 0.00 in 0.03 in 0.33 in (2002)
Month to date precipitation 0.30 0.49  
Year to date precipitation 6.61 9.41  
Sea Level Pressure  
Sea Level Pressure 30.13 in    
Wind  
Wind Speed 5 mph (ESE)    
Max Wind Speed 13 mph    
Max Gust Speed 16 mph    
Visibility 9 miles    
Events      
T = Trace of Precipitation, MM = Missing Value Source: NWS Daily Summary

Daily Weather History Graph

Daily Weather History Graph

Search for Another Location

Airport or City:

Astronomy

Sep. 17, 2012 Rise Set
Actual Time 7:09 AM MDT 7:32 PM MDT
Civil Twilight 6:40 AM MDT 8:01 PM MDT
Nautical Twilight 6:06 AM MDT 8:35 PM MDT
Astronomical Twilight 5:31 AM MDT 9:10 PM MDT
Moon 9:08 AM MDT (9/17) 8:10 PM MDT (9/17)
Length of Visible Light 13h 21m
Length of Day
12h 23m
Waxing Crescent, 4% of the Moon is Illuminated
Sep 17
Waxing Crescent
Sep 22
First Quarter
Sep 29
Full
Oct 8
Last Quarter
Oct 15
New

Hourly Weather History & Observations

Time (MDT) Temp. Windchill Dew Point Humidity Pressure Visibility Wind Dir Wind Speed Gust Speed Precip Events Conditions
12:53 AM 50.0 °F - 39.0 °F 66% 30.08 in 10.0 mi ENE 9.2 mph - N/A   Clear
1:53 AM 48.0 °F - 37.9 °F 68% 30.10 in 10.0 mi NE 4.6 mph - N/A   Clear
2:53 AM 46.9 °F - 37.9 °F 71% 30.10 in 10.0 mi ENE 5.8 mph - N/A   Clear
3:53 AM 45.0 °F - 37.9 °F 76% 30.11 in 10.0 mi Calm Calm - N/A   Clear
4:53 AM 43.0 °F 41.3 °F 37.0 °F 80% 30.14 in 10.0 mi NE 3.5 mph - N/A   Clear
6:53 AM 41.0 °F 35.8 °F 36.0 °F 82% 30.18 in 10.0 mi ENE 8.1 mph - N/A   Clear
7:53 AM 39.9 °F 35.8 °F 35.1 °F 83% 30.19 in 8.0 mi ENE 5.8 mph - N/A   Clear
8:53 AM 45.0 °F - 36.0 °F 71% 30.19 in 9.0 mi Calm Calm - N/A   Clear
9:53 AM 54.0 °F - 39.9 °F 59% 30.18 in 10.0 mi NNE 3.5 mph - N/A   Clear
10:53 AM 60.1 °F - 39.9 °F 47% 30.17 in 10.0 mi ENE 3.5 mph - N/A   Clear
11:53 AM 64.9 °F - 37.9 °F 37% 30.16 in 10.0 mi Calm Calm - N/A   Clear
12:53 PM 68.0 °F - 33.1 °F 27% 30.14 in 10.0 mi Variable 3.5 mph - N/A   Clear
1:53 PM 69.1 °F - 30.0 °F 23% 30.12 in 10.0 mi Calm Calm - N/A   Clear
2:53 PM 71.1 °F - 30.0 °F 22% 30.11 in 9.0 mi South 5.8 mph - N/A   Clear
3:53 PM 72.0 °F - 32.0 °F 23% 30.10 in 7.0 mi South 10.4 mph - N/A   Clear
4:53 PM 73.0 °F - 30.0 °F 20% 30.09 in 5.0 mi SW 8.1 mph - N/A   Haze
5:53 PM 72.0 °F - 30.9 °F 22% 30.09 in 5.0 mi SSW 6.9 mph - N/A   Haze
6:53 PM 68.0 °F - 34.0 °F 28% 30.10 in 5.0 mi South 6.9 mph - N/A   Haze
7:53 PM 63.0 °F - 37.9 °F 40% 30.13 in 9.0 mi South 8.1 mph - N/A   Mostly Cloudy
8:53 PM 61.0 °F - 35.1 °F 38% 30.14 in 8.0 mi South 8.1 mph - N/A   Scattered Clouds
9:53 PM 61.0 °F - 34.0 °F 36% 30.12 in 8.0 mi South 6.9 mph - N/A   Clear
10:53 PM 59.0 °F - 34.0 °F 39% 30.12 in 8.0 mi Calm Calm - N/A   Clear
11:53 PM 51.1 °F - 37.0 °F 59% 30.14 in 8.0 mi Calm Calm - N/A   Clear